Tracking 19562 objects as of 25-Mar-2019
HD Live streaming from Space Station
objects crossing your sky now

FENGYUN 1A

Track FENGYUN 1A now!
10-day predictions
FENGYUN 1A is classified as:


NORAD ID: 19467
Int'l Code: 1988-080A
Perigee: 879.2 km
Apogee: 901.4 km
Inclination: 99.2 °
Period: 102.6 minutes
Semi major axis: 7261 km
RCS: 2.4571 m2 (large)
Launch date: September 6, 1988
Source: People's Republic of China (PRC)
Launch site: Taiyaun Space Center, China (TSC)
aabbcc
Your satellite tracking list
Your tracking list is empty




NASA's NSSDC Master Catalog

Two Line Element Set (TLE):
1 19467U 88080A   19082.95583099 -.00000135  00000-0 -57371-4 0  9997
2 19467  99.2389  75.6841 0015297  82.8027 277.4877 14.03085913563539
Source of the keplerian elements: AFSPC